User: anonymous   Login
Location: Knowlton
(51.2333°N, 1.2667°E)
Time: 23:54:40
(UTC+00:00)
Language:

Cosmos 405 - Orbit

View from above orbital plane
View from above orbital plane
View from above satellite
View from above satellite

Ground track
Ground track

The orbit data is extracted from the following two-line orbital elements,

1  5117U 71028A   21172.61050161  .00001762  00000-0  46991-4 0  9994
2  5117  81.2628  61.7933 0010627 120.3636 283.7087 15.37497357737541
Epoch (UTC): 21 June 2021 14:39:07
Eccentricity: 0.0010627
inclination: 81.2628°
perigee height: 446 km
apogee height: 461 km
right ascension of ascending node: 61.7933°
argument of perigee: 120.3636°
revolutions per day: 15.37497357
mean anomaly at epoch: 283.7087°
orbit number at epoch: 73754

The dashed part of the orbit path shows where the satellite is in the earth's shadow,  

DLR